Regional Weather Roundup
Issued by NWS

Home | Current Version | Previous Version | Graphics & Text | Print | Product List | Glossary On
Versions: 1 2 3 4 5 6 7 8 9 10 11 12 13 14 15 16 17 18 19 20 21 22 23 24 25 26 27 28 29 30 31 32 33 34 35 36 37 38 39 40 41 42 43 44 45 46 47 48 49 50
000
ASUS43 KLMK 280902
RWRKY
KENTUCKY REGIONAL WEATHER ROUNDUP
NATIONAL WEATHER SERVICE LOUISVILLE KY
500 AM EDT THU MAY 28 2015

NOTE "FAIR" INDICATES FEW OR NO CLOUDS BELOW 12,000 FEET
WITH NO SIGNIFICANT WEATHER AND/OR OBSTRUCTIONS TO VISIBILITY.

KYZ001>023-026-027-061>063-070>075-281000-
WESTERN AND SOUTH CENTRAL KENTUCKY

CITY           SKY/WX    TMP DP  RH WIND       PRES   REMARKS
PADUCAH        CLEAR     64  63  96 CALM      30.14S
HENDERSON      PTCLDY    63  61  94 S5        30.14S
OWENSBORO      MOCLDY    65  65 100 CALM      30.16S FOG
HOPKINSVILLE   MOCLDY    65  65  98 NW2       30.14F
BOWLING GREEN  MOCLDY    66  63  90 CALM      30.16S
GLASGOW        NOT AVBL
$$

KYZ024-025-028>034-038-045-046-053-281000-
NORTH CENTRAL KENTUCKY

CITY           SKY/WX    TMP DP  RH WIND       PRES   REMARKS
LOUISVILLE/SDF CLOUDY    67  64  90 W5        30.17R
LOUISVILLE/LOU MOCLDY    64  62  93 CALM      30.17S
FORT KNOX      CLOUDY    63  61  94 W6        30.16R FOG
$$

KYZ035>037-039>044-047>052-055>060-089>105-281000-
NORTHEAST KENTUCKY

CITY           SKY/WX    TMP DP  RH WIND       PRES   REMARKS
LEXINGTON      CLOUDY    61  60  97 CALM      30.19R
COVINGTON      CLOUDY    63  61  93 CALM      30.17S
FRANKFORT      CLOUDY    61  59  93 SE3       30.17R
$$

KYZ054-064>069-076>088-106>120-281000-
SOUTHEAST KENTUCKY

CITY           SKY/WX    TMP DP  RH WIND       PRES   REMARKS
JACKSON        PTCLDY    64  60  87 CALM      30.21R
LONDON         CLEAR     61  56  83 CALM      30.20R
SOMERSET       NOT AVBL
MIDDLESBORO    FOG       64  64 100 CALM      30.21S VSB 1/2
MONTICELLO     PTSUNNY   62  62 100 CALM      30.21S
$$



USA.gov is the U.S. government's official web portal to all federal, state and local government web resources and services.